Volver al catálogo

NOAA 16 DEB

ActivoSSO
NORAD 41208·DEBRIS·🇺🇸 United States

Lanzado Sep 21, 2000 desde Vandenberg Space Force Base

Loading…

Próximos Pases (próximas 24 horas)

TLE

ActualizadoSource: Space-Track

Época: Sep 13, 2026, 11:14 UTC

1 41208U 00055DM  26256.46873932  .00001944  00000-0  94715-3 0  9995
2 41208  98.6626 266.6618 0030999 357.7115   2.3915 14.19015010552079

Sigue NOAA 16 DEB en tiempo real con AllMySat

Download on the App Store